Home   Weather   Cleveland   Past weeks

Flag for USA Past Weather in Cleveland, Ohio, USA — January 2016

Now
57 °F

Light rain. Mostly cloudy.


Feels Like: 56 °F
Forecast: 59 / 71 °F
Wind: 6 mph from South

Location: Cleveland-Hopkins International Airport

Current Time: Jun 27, 2017 at 1:08:12 am

Latest Report: Jun 26, 2017 at 11:51 pm


Visibility: 10 mi

Pressure: 30.01 "Hg

Humidity: 81%

Dew Point: 51 °F

Location of ClevelandLocation

January 2016 Weather in Cleveland — Graph

°F

High & Low Weather Summary for January 2016

 TemperatureHumidityPressure
High59 °F (Jan 31, 10:51 pm)93% (Jan 8, 5:51 pm)30.73 "Hg (Jan 8, 5:51 pm)
Low6 °F (Jan 18, 5:51 am)25% (Jan 7, 2:51 pm)29.30 "Hg (Jan 10, 8:58 am)
Average28 °F67%30.05 "Hg
* Reported Jan 1 12:51 am — Jan 31 11:51 pm, Cleveland. Weather by CustomWeather, © 2017

Note: Actual official high and low records may vary slightly from our data, if they occured in-between our weather recording intervals... More about our weather records

Advertising

Cleveland Weather History for January 1, 2016

Scroll right to see more
 ConditionsComfort  
Time TempWeatherWind HumidityBarometerVisibility
12:51 am
Fri, Jan 1
31 °FLight snow. Overcast.16 mph73%30.23 "Hg9 mi
1:51 am30 °FLight snow. Overcast.16 mph72%30.21 "Hg9 mi
2:51 am30 °FLight snow. Overcast.17 mph69%30.21 "Hg9 mi
3:51 am30 °FLight snow. Overcast.17 mph69%30.20 "Hg9 mi
4:51 am30 °FLight snow. Overcast.13 mph66%30.19 "Hg9 mi
5:51 am30 °FLight snow. Overcast.20 mph72%30.17 "Hg9 mi
6:51 am29 °FLight snow. Overcast.25 mph61%30.18 "Hg9 mi
7:51 am27 °FPartly cloudy.18 mph66%30.19 "Hg10 mi
8:51 am28 °FBroken clouds.18 mph66%30.19 "Hg10 mi
9:51 am28 °FLight snow. Mostly cloudy.17 mph66%30.19 "Hg7 mi
10:51 am29 °FMostly cloudy.15 mph66%30.20 "Hg10 mi
11:51 am30 °FOvercast.21 mph64%30.18 "Hg10 mi
12:51 pm30 °FOvercast.22 mph64%30.16 "Hg10 mi
1:51 pm30 °FOvercast.18 mph64%30.14 "Hg10 mi
2:51 pm29 °FOvercast.17 mph64%30.15 "Hg10 mi
3:51 pm29 °FOvercast.16 mph66%30.16 "Hg10 mi
4:51 pm26 °FLight snow. Mostly cloudy.17 mph74%30.18 "Hg5 mi
5:51 pm25 °FLight snow. Overcast.17 mph72%30.21 "Hg7 mi
6:51 pm25 °FLight snow. Mostly cloudy.16 mph69%30.20 "Hg10 mi
7:51 pm25 °FOvercast.14 mph69%30.21 "Hg10 mi
8:51 pm26 °FOvercast.16 mph63%30.21 "Hg10 mi
9:51 pm26 °FOvercast.10 mph69%30.21 "Hg10 mi
10:51 pm26 °FOvercast.10 mph69%30.21 "Hg10 mi
11:51 pm26 °FOvercast.8 mph71%30.20 "Hg10 mi
Weather by CustomWeather, © 2017

See weather overviewHow to use our weather pages